Simultaneous Nadir Overpasses (SNOs) Predictions

Prediction of SNOs between NPP and TERRA Satellite Orbit:

Table of predicted SNOs for the next 14.0 days since TLE Epoch: 2/8/2013
Index Date (NPP) Time (NPP) Lat,Lon (NPP) SZA (NPP ) Date (TERRA) Time (TERRA) Lat,Lon (TERRA) SZA (TERRA ) Distance(km) Time Diff (sec)
1 02/08/2013 20:02:04 -68.22, 57.81 97.07 02/08/2013 20:02:42 -68.23, 57.87 97.07 2.47 38
2 02/08/2013 20:52:47 68.04,-134.65 82.73 02/08/2013 20:52:10 68.06,-134.68 82.76 3.03 37
3 02/11/2013 11:28:26 68.62, 5.74 82.49 02/11/2013 11:29:36 68.52, 6.47 82.35 31.91 70
4 02/11/2013 12:19:01 -68.16, 173.66 98.01 02/11/2013 12:19:11 -68.13, 173.64 98.04 2.70 10
5 02/11/2013 13:09:45 68.03, -18.88 81.85 02/11/2013 13:08:38 68.02, -18.85 81.85 1.66 67
6 02/14/2013 03:45:17 68.24, 121.99 81.20 02/14/2013 03:46:08 68.24, 122.02 81.19 1.45 51
7 02/14/2013 04:35:58 -68.10, -70.51 98.97 02/14/2013 04:35:39 -68.08, -70.53 98.99 2.38 19
8 02/14/2013 05:26:27 67.16, 97.94 80.06 02/14/2013 05:25:19 67.23, 96.15 80.19 77.32 68
9 02/16/2013 19:11:46 -69.22, 69.13 98.69 02/16/2013 19:12:53 -69.12, 71.36 98.87 89.12 67
10 02/16/2013 20:02:13 68.20,-122.19 80.23 02/16/2013 20:02:35 68.17,-122.17 80.20 3.22 22
11 02/16/2013 20:52:54 -68.05, 45.31 99.94 02/16/2013 20:52:05 -68.07, 45.34 99.92 2.51 49
12 02/19/2013 11:28:26 -68.28,-173.84 100.63 02/19/2013 11:29:35 -68.27,-173.81 100.65 1.58 69
13 02/19/2013 12:19:09 68.11, -6.32
